Terug naar catalogus

STARLINK-4001

ActiefCommunicatieVLEO
NORAD 52628·PAYLOAD·🇺🇸 United States

Gelanceerd May 14, 2022 vanaf Cape Canaveral Space Force Station

Loading…

Volgende Passages (komende 24 uur)

TLE

VersSource: CelesTrak SupGP

Epoch: Sep 15, 2026, 01:58 UTC

1 52628C 22052AG  26258.08243056  .00010842  00000+0  31019-3 0  2584
2 52628  53.1563 141.6238 0001283  86.9359 158.6625 15.35393253    10

Volg STARLINK-4001 in realtime met AllMySat

Download on the App Store